Change the Weather History Date:

Saturday, February 15, 2014

  Actual Average (KTUL) Record (KTUL)
Temperature  
Mean Temperature 48 °F 42 °F  
Max Temperature 69 °F 53 °F 80 °F (1976)
Min Temperature 26 °F 31 °F 3 °F (1905)
Degree Days  
Heating Degree Days 18 23  
Month to date heating degree days 368  
Since 1 July heating degree days 2641  
Moisture  
Dew Point 26 °F    
Average Humidity 52    
Maximum Humidity 81    
Minimum Humidity 20    
Precipitation  
Precipitation 0.00 in 0.06 in 1.74 in (1938)
Month to date precipitation 0.89  
Year to date precipitation 2.55  
Sea Level Pressure  
Sea Level Pressure 30.06 in    
Wind  
Wind Speed 4 mph (SSW)    
Max Wind Speed 18 mph    
Max Gust Speed 30 mph    
Visibility 10 miles    
Events      
T = Trace of Precipitation, MM = Missing Value Source: NWS Daily Summary

Daily Weather History Graph

Daily Weather History Graph

Search for Another Location

Airport or City:

Trip Planner

Search our weather history database for the weather conditions in past years. The results will help you decide how hot, cold, wet, or windy it might be!

Date:

Astronomy

Feb. 15, 2014 Rise Set
Actual Time 7:11 AM CST 6:05 PM CST
Civil Twilight 6:44 AM CST 6:31 PM CST
Nautical Twilight 6:14 AM CST 7:01 PM CST
Astronomical Twilight 5:45 AM CST 7:31 PM CST
Moon 7:02 PM CST (2/15) 7:13 AM CST (2/15)
Length of Visible Light 11h 46m
Length of Day
10h 54m
Waxing Gibbous, 99% of the Moon is Illuminated
Feb 15
Waxing Gibbous
Feb 22
Last Quarter
Mar 1
New
Mar 8
First Quarter
Mar 16
Full

Hourly Weather History & Observations

Time (CST) Temp. Windchill Dew Point Humidity Pressure Visibility Wind Dir Wind Speed Gust Speed Precip Events Conditions
12:53 AM 33.1 °F - 24.1 °F 70% 30.15 in 10.0 mi Calm Calm - N/A   Clear
1:53 AM 33.1 °F - 24.1 °F 70% 30.15 in 10.0 mi Calm Calm - N/A   Clear
2:53 AM 27.0 °F - 21.9 °F 81% 30.14 in 10.0 mi Calm Calm - N/A   Clear
3:53 AM 27.0 °F - 21.0 °F 78% 30.12 in 10.0 mi Calm Calm - N/A   Clear
4:53 AM 28.0 °F - 21.9 °F 78% 30.15 in 9.0 mi Calm Calm - N/A   Clear
5:53 AM 27.0 °F - 21.9 °F 81% 30.14 in 8.0 mi Calm Calm - N/A   Clear
6:53 AM 26.1 °F 21.9 °F 21.0 °F 81% 30.14 in 8.0 mi SW 3.5 mph - N/A   Clear
7:53 AM 27.0 °F - 21.9 °F 81% 30.14 in 6.0 mi Calm Calm - N/A   Haze
8:53 AM 36.0 °F 30.3 °F 26.1 °F 67% 30.11 in 7.0 mi South 6.9 mph - N/A   Clear
9:53 AM 42.1 °F 37.7 °F 28.0 °F 58% 30.09 in 10.0 mi South 6.9 mph - N/A   Clear
10:53 AM 52.0 °F - 28.0 °F 40% 30.07 in 10.0 mi SSW 16.1 mph 23.0 mph N/A   Clear
11:53 AM 59.0 °F - 28.0 °F 31% 30.01 in 10.0 mi South 16.1 mph 25.3 mph N/A   Clear
12:53 PM 63.0 °F - 27.0 °F 26% 29.98 in 10.0 mi SW 15.0 mph 29.9 mph N/A   Clear
1:53 PM 64.9 °F - 27.0 °F 24% 29.92 in 10.0 mi SSW 15.0 mph 24.2 mph N/A   Clear
2:53 PM 69.1 °F - 26.1 °F 20% 29.90 in 10.0 mi SSW 18.4 mph 24.2 mph N/A   Clear
3:53 PM 69.1 °F - 26.1 °F 20% 29.91 in 10.0 mi SW 12.7 mph 21.9 mph N/A   Clear
4:53 PM 68.0 °F - 27.0 °F 21% 29.96 in 10.0 mi WSW 6.9 mph - N/A   Clear
5:53 PM 64.9 °F - 27.0 °F 24% 29.98 in 10.0 mi SW 5.8 mph - N/A   Clear
6:53 PM 55.9 °F - 28.0 °F 34% 30.00 in 10.0 mi South 3.5 mph - N/A   Clear
7:53 PM 46.0 °F - 28.9 °F 51% 30.03 in 10.0 mi Calm Calm - N/A   Clear
8:53 PM 43.0 °F - 30.0 °F 60% 30.05 in 10.0 mi Calm Calm - N/A   Clear
9:53 PM 54.0 °F - 28.9 °F 38% 30.07 in 10.0 mi Calm Calm - N/A   Clear
10:53 PM 44.1 °F 42.5 °F 30.0 °F 58% 30.08 in 10.0 mi NNE 3.5 mph - N/A   Clear
11:53 PM 51.1 °F - 32.0 °F 48% 30.08 in 10.0 mi NNE 4.6 mph - N/A   Clear